Time,TemperatureF,DewpointF,PressureIn,WindDirection,WindDirectionDegrees,WindSpeedMPH,WindSpeedGustMPH,Humidity,HourlyPrecipIn,Conditions,Clouds,dailyrainin,SoftwareType,DateUTC
2013-05-29 00:00:00,65.9,62.6,28.34,SSW,202,3.0,4.0,89,0.00,,,0.00,Weather View 32 v70,2013-05-29 04:00:00,
2013-05-29 00:01:00,65.9,62.6,28.34,SSW,202,3.0,4.0,89,0.00,,,0.00,Weather View 32 v70,2013-05-29 04:01:00,
2013-05-29 00:06:00,65.9,62.6,28.34,SSW,202,4.0,4.0,89,0.00,,,0.00,Weather View 32 v70,2013-05-29 04:06:00,
2013-05-29 00:11:00,66.2,62.8,28.34,SSW,202,3.0,4.0,89,0.00,,,0.00,Weather View 32 v70,2013-05-29 04:11:00,
2013-05-29 00:16:00,66.6,62.9,28.34,South,180,3.0,4.0,88,0.00,,,0.00,Weather View 32 v70,2013-05-29 04:16:00,
2013-05-29 00:21:00,67.0,62.7,28.34,South,180,3.0,5.0,86,0.00,,,0.00,Weather View 32 v70,2013-05-29 04:21:00,
2013-05-29 00:26:00,67.2,62.9,28.34,South,180,4.0,6.0,86,0.00,,,0.00,Weather View 32 v70,2013-05-29 04:26:00,
2013-05-29 00:31:00,67.1,62.8,28.34,South,180,3.0,6.0,86,0.00,,,0.00,Weather View 32 v70,2013-05-29 04:31:00,
2013-05-29 00:36:00,66.9,62.6,28.34,South,180,2.0,6.0,86,0.00,,,0.00,Weather View 32 v70,2013-05-29 04:36:00,
2013-05-29 00:41:00,66.6,62.3,28.34,SW,225,2.0,6.0,86,0.00,,,0.00,Weather View 32 v70,2013-05-29 04:41:00,
2013-05-29 00:46:00,66.0,61.3,28.35,West,270,0.0,6.0,85,0.00,,,0.00,Weather View 32 v70,2013-05-29 04:46:00,
2013-05-29 00:51:00,64.8,60.5,28.34,NW,315,2.0,6.0,86,0.00,,,0.00,Weather View 32 v70,2013-05-29 04:51:00,
2013-05-29 00:56:00,63.7,60.1,28.34,NW,315,0.0,6.0,88,0.00,,,0.00,Weather View 32 v70,2013-05-29 04:56:00,
2013-05-29 01:01:00,62.7,60.0,28.35,NW,315,0.0,6.0,91,0.00,,,0.00,Weather View 32 v70,2013-05-29 05:01:00,
2013-05-29 01:06:00,62.1,60.6,28.35,NW,315,0.0,6.0,95,0.00,,,0.00,Weather View 32 v70,2013-05-29 05:06:00,
2013-05-29 01:12:00,61.9,61.0,28.34,NW,315,0.0,6.0,97,0.00,,,0.00,Weather View 32 v70,2013-05-29 05:12:00,
2013-05-29 01:17:00,61.9,61.3,28.34,NW,315,0.0,6.0,98,0.00,,,0.00,Weather View 32 v70,2013-05-29 05:17:00,
2013-05-29 01:22:00,61.9,61.3,28.34,NW,315,0.0,6.0,98,0.00,,,0.00,Weather View 32 v70,2013-05-29 05:22:00,
2013-05-29 01:27:00,61.9,61.3,28.34,NW,315,0.0,6.0,98,0.00,,,0.00,Weather View 32 v70,2013-05-29 05:27:00,
2013-05-29 01:32:00,61.9,61.3,28.34,NW,315,0.0,6.0,98,0.00,,,0.00,Weather View 32 v70,2013-05-29 05:32:00,
2013-05-29 01:37:00,62.4,61.8,28.35,NW,315,0.0,3.0,98,0.00,,,0.00,Weather View 32 v70,2013-05-29 05:37:00,
2013-05-29 01:42:00,62.9,62.0,28.35,NW,315,0.0,2.0,97,0.00,,,0.00,Weather View 32 v70,2013-05-29 05:42:00,
2013-05-29 01:47:00,63.6,62.1,28.34,NW,315,0.0,2.0,95,0.00,,,0.00,Weather View 32 v70,2013-05-29 05:47:00,
2013-05-29 01:52:00,63.9,61.8,28.34,NW,315,0.0,2.0,93,0.00,,,0.00,Weather View 32 v70,2013-05-29 05:52:00,
2013-05-29 01:57:00,63.9,61.5,28.34,NW,315,0.0,2.0,92,0.00,,,0.00,Weather View 32 v70,2013-05-29 05:57:00,
2013-05-29 02:02:00,63.6,60.9,28.35,NW,315,0.0,2.0,91,0.00,,,0.00,Weather View 32 v70,2013-05-29 06:02:00,
2013-05-29 02:07:00,63.2,61.4,28.35,NW,315,0.0,2.0,94,0.00,,,0.00,Weather View 32 v70,2013-05-29 06:07:00,
2013-05-29 02:12:00,62.9,60.8,28.35,NW,315,1.0,2.0,93,0.00,,,0.00,Weather View 32 v70,2013-05-29 06:12:00,
2013-05-29 02:17:00,62.4,60.3,28.35,NW,315,0.0,2.0,93,0.00,,,0.00,Weather View 32 v70,2013-05-29 06:17:00,
2013-05-29 02:22:00,61.9,60.4,28.35,NW,315,0.0,2.0,95,0.00,,,0.00,Weather View 32 v70,2013-05-29 06:22:00,
2013-05-29 02:27:00,61.7,61.1,28.35,NW,315,0.0,2.0,98,0.00,,,0.00,Weather View 32 v70,2013-05-29 06:27:00,
2013-05-29 02:32:00,61.7,61.1,28.34,SSW,202,0.0,2.0,98,0.00,,,0.00,Weather View 32 v70,2013-05-29 06:32:00,
2013-05-29 02:37:00,62.5,61.9,28.34,South,180,2.0,3.0,98,0.00,,,0.00,Weather View 32 v70,2013-05-29 06:37:00,
2013-05-29 02:42:00,63.5,61.4,28.34,South,180,2.0,4.0,93,0.00,,,0.00,Weather View 32 v70,2013-05-29 06:42:00,
2013-05-29 02:47:00,63.9,61.5,28.35,South,180,2.0,4.0,92,0.00,,,0.00,Weather View 32 v70,2013-05-29 06:47:00,
2013-05-29 02:52:00,64.2,61.5,28.35,SE,135,2.0,4.0,91,0.00,,,0.00,Weather View 32 v70,2013-05-29 06:52:00,
2013-05-29 02:57:00,64.2,61.5,28.35,South,180,0.0,4.0,91,0.00,,,0.00,Weather View 32 v70,2013-05-29 06:57:00,
2013-05-29 03:02:00,64.4,61.4,28.35,South,180,1.0,4.0,90,0.00,,,0.00,Weather View 32 v70,2013-05-29 07:02:00,
2013-05-29 03:07:00,64.6,61.3,28.35,SE,135,1.0,4.0,89,0.00,,,0.00,Weather View 32 v70,2013-05-29 07:07:00,
2013-05-29 03:12:00,64.5,61.5,28.35,South,180,2.0,4.0,90,0.00,,,0.00,Weather View 32 v70,2013-05-29 07:12:00,
2013-05-29 03:17:00,64.5,61.2,28.35,South,180,0.0,4.0,89,0.00,,,0.00,Weather View 32 v70,2013-05-29 07:17:00,
2013-05-29 03:22:00,63.9,60.6,28.35,North,360,1.0,4.0,89,0.00,,,0.00,Weather View 32 v70,2013-05-29 07:22:00,
2013-05-29 03:27:00,63.4,60.4,28.35,North,360,0.0,4.0,90,0.00,,,0.00,Weather View 32 v70,2013-05-29 07:27:00,
2013-05-29 03:33:00,62.7,60.0,28.35,North,360,0.0,4.0,91,0.00,,,0.00,Weather View 32 v70,2013-05-29 07:33:00,
2013-05-29 03:38:00,62.6,60.8,28.35,North,360,0.0,4.0,94,0.00,,,0.00,Weather View 32 v70,2013-05-29 07:38:00,
2013-05-29 03:43:00,62.9,60.8,28.34,South,180,1.0,4.0,93,0.00,,,0.00,Weather View 32 v70,2013-05-29 07:43:00,
2013-05-29 03:48:00,63.2,61.1,28.35,SSW,202,2.0,4.0,93,0.00,,,0.00,Weather View 32 v70,2013-05-29 07:48:00,
2013-05-29 03:53:00,64.0,61.0,28.35,South,180,3.0,4.0,90,0.00,,,0.00,Weather View 32 v70,2013-05-29 07:53:00,
2013-05-29 03:58:00,64.3,61.3,28.35,South,180,1.0,4.0,90,0.00,,,0.00,Weather View 32 v70,2013-05-29 07:58:00,
2013-05-29 04:03:00,64.3,61.3,28.35,West,270,0.0,4.0,90,0.00,,,0.00,Weather View 32 v70,2013-05-29 08:03:00,
2013-05-29 04:08:00,63.6,59.6,28.35,West,270,0.0,4.0,87,0.00,,,0.00,Weather View 32 v70,2013-05-29 08:08:00,
2013-05-29 04:13:00,62.5,59.2,28.35,West,270,0.0,4.0,89,0.00,,,0.00,Weather View 32 v70,2013-05-29 08:13:00,
2013-05-29 04:18:00,61.4,59.0,28.35,West,270,0.0,4.0,92,0.00,,,0.00,Weather View 32 v70,2013-05-29 08:18:00,
2013-05-29 04:23:00,60.7,59.0,28.35,West,270,0.0,4.0,94,0.00,,,0.00,Weather View 32 v70,2013-05-29 08:23:00,
2013-05-29 04:28:00,60.1,59.0,28.35,West,270,0.0,4.0,96,0.00,,,0.00,Weather View 32 v70,2013-05-29 08:28:00,
2013-05-29 04:33:00,59.8,59.2,28.35,West,270,0.0,4.0,98,0.00,,,0.00,Weather View 32 v70,2013-05-29 08:33:00,
2013-05-29 04:38:00,59.6,59.0,28.35,West,270,0.0,4.0,98,0.00,,,0.00,Weather View 32 v70,2013-05-29 08:38:00,
2013-05-29 04:43:00,59.4,58.8,28.35,West,270,0.0,4.0,98,0.00,,,0.00,Weather View 32 v70,2013-05-29 08:43:00,
2013-05-29 04:48:00,59.3,58.7,28.35,West,270,0.0,4.0,98,0.00,,,0.00,Weather View 32 v70,2013-05-29 08:48:00,
2013-05-29 04:53:00,59.2,58.6,28.35,West,270,0.0,4.0,98,0.00,,,0.00,Weather View 32 v70,2013-05-29 08:53:00,
2013-05-29 04:58:00,59.3,58.7,28.34,West,270,0.0,2.0,98,0.00,,,0.00,Weather View 32 v70,2013-05-29 08:58:00,
2013-05-29 05:03:00,59.6,59.0,28.35,West,270,0.0,2.0,98,0.00,,,0.00,Weather View 32 v70,2013-05-29 09:03:00,
2013-05-29 05:08:00,60.1,59.5,28.35,South,180,1.0,2.0,98,0.00,,,0.00,Weather View 32 v70,2013-05-29 09:08:00,
2013-05-29 05:13:00,60.5,59.9,28.35,South,180,0.0,4.0,98,0.00,,,0.00,Weather View 32 v70,2013-05-29 09:13:00,
2013-05-29 05:18:00,60.2,59.6,28.35,South,180,0.0,4.0,98,0.00,,,0.00,Weather View 32 v70,2013-05-29 09:18:00,
2013-05-29 05:23:00,59.9,59.3,28.35,South,180,0.0,4.0,98,0.00,,,0.00,Weather View 32 v70,2013-05-29 09:23:00,
2013-05-29 05:28:00,59.5,58.9,28.35,South,180,0.0,4.0,98,0.00,,,0.00,Weather View 32 v70,2013-05-29 09:28:00,
2013-05-29 05:33:00,59.1,58.5,28.35,South,180,0.0,4.0,98,0.00,,,0.00,Weather View 32 v70,2013-05-29 09:33:00,
2013-05-29 05:38:00,58.8,58.2,28.35,South,180,0.0,4.0,98,0.00,,,0.00,Weather View 32 v70,2013-05-29 09:38:00,
2013-05-29 05:43:00,58.6,58.0,28.35,South,180,0.0,4.0,98,0.00,,,0.00,Weather View 32 v70,2013-05-29 09:43:00,
2013-05-29 05:48:00,58.6,58.0,28.35,South,180,0.0,4.0,98,0.00,,,0.00,Weather View 32 v70,2013-05-29 09:48:00,
2013-05-29 05:53:00,58.6,58.0,28.35,South,180,0.0,4.0,98,0.00,,,0.00,Weather View 32 v70,2013-05-29 09:53:00,
2013-05-29 05:58:00,58.8,58.2,28.35,South,180,1.0,4.0,98,0.00,,,0.00,Weather View 32 v70,2013-05-29 09:58:00,
2013-05-29 06:03:00,58.9,58.3,28.35,South,180,0.0,4.0,98,0.00,,,0.00,Weather View 32 v70,2013-05-29 10:03:00,
2013-05-29 06:08:00,58.7,58.1,28.35,South,180,0.0,4.0,98,0.00,,,0.00,Weather View 32 v70,2013-05-29 10:08:00,
2013-05-29 06:13:00,58.6,58.0,28.35,South,180,0.0,2.0,98,0.00,,,0.00,Weather View 32 v70,2013-05-29 10:13:00,
2013-05-29 06:18:00,58.4,57.8,28.35,NW,315,1.0,2.0,98,0.00,,,0.00,Weather View 32 v70,2013-05-29 10:18:00,
2013-05-29 06:23:00,58.1,57.5,28.35,NW,315,1.0,2.0,98,0.00,,,0.00,Weather View 32 v70,2013-05-29 10:23:00,
2013-05-29 06:28:00,57.9,57.1,28.35,NW,315,2.0,2.0,97,0.00,,,0.00,Weather View 32 v70,2013-05-29 10:28:00,
2013-05-29 06:33:00,57.8,57.0,28.35,NW,315,0.0,2.0,97,0.00,,,0.00,Weather View 32 v70,2013-05-29 10:33:00,
2013-05-29 06:38:00,57.6,56.8,28.35,NW,315,0.0,2.0,97,0.00,,,0.00,Weather View 32 v70,2013-05-29 10:38:00,
2013-05-29 06:43:00,57.5,56.7,28.35,NW,315,1.0,2.0,97,0.00,,,0.00,Weather View 32 v70,2013-05-29 10:43:00,
2013-05-29 06:48:00,57.5,56.7,28.35,NW,315,1.0,2.0,97,0.00,,,0.00,Weather View 32 v70,2013-05-29 10:48:00,
2013-05-29 06:53:00,57.6,56.8,28.35,NW,315,1.0,2.0,97,0.00,,,0.00,Weather View 32 v70,2013-05-29 10:53:00,
2013-05-29 06:58:00,57.5,56.7,28.35,NW,315,0.0,2.0,97,0.00,,,0.00,Weather View 32 v70,2013-05-29 10:58:00,
2013-05-29 07:03:00,59.4,58.8,28.35,SW,225,3.0,4.0,98,0.00,,,0.00,Weather View 32 v70,2013-05-29 11:03:00,
2013-05-29 07:08:00,60.6,60.0,28.35,West,270,0.0,5.0,98,0.00,,,0.00,Weather View 32 v70,2013-05-29 11:08:00,
2013-05-29 07:13:00,61.2,60.6,28.36,SW,225,4.0,5.0,98,0.00,,,0.00,Weather View 32 v70,2013-05-29 11:13:00,
2013-05-29 07:18:00,62.4,61.8,28.35,SW,225,1.0,5.0,98,0.00,,,0.00,Weather View 32 v70,2013-05-29 11:18:00,
2013-05-29 07:23:00,62.9,62.3,28.35,SW,225,2.0,5.0,98,0.00,,,0.00,Weather View 32 v70,2013-05-29 11:23:00,
2013-05-29 07:28:00,63.5,62.9,28.35,SW,225,1.0,5.0,98,0.00,,,0.00,Weather View 32 v70,2013-05-29 11:28:00,
2013-05-29 07:33:00,63.9,63.3,28.36,SW,225,1.0,5.0,98,0.00,,,0.00,Weather View 32 v70,2013-05-29 11:33:00,
2013-05-29 07:38:00,64.3,63.7,28.36,SW,225,0.0,5.0,98,0.00,,,0.00,Weather View 32 v70,2013-05-29 11:38:00,
2013-05-29 07:43:00,64.9,64.3,28.37,South,180,2.0,5.0,98,0.00,,,0.00,Weather View 32 v70,2013-05-29 11:43:00,
2013-05-29 07:48:00,65.9,64.7,28.36,South,180,2.0,5.0,96,0.00,,,0.00,Weather View 32 v70,2013-05-29 11:48:00,
2013-05-29 07:53:00,66.6,65.1,28.37,South,180,2.0,5.0,95,0.00,,,0.00,Weather View 32 v70,2013-05-29 11:53:00,
2013-05-29 07:58:00,67.3,64.6,28.37,SW,225,4.0,5.0,91,0.00,,,0.00,Weather View 32 v70,2013-05-29 11:58:00,
2013-05-29 08:03:00,67.9,63.9,28.37,South,180,4.0,5.0,87,0.00,,,0.00,Weather View 32 v70,2013-05-29 12:03:00,
2013-05-29 08:08:00,68.3,63.6,28.37,South,180,6.0,7.0,85,0.00,,,0.00,Weather View 32 v70,2013-05-29 12:08:00,
2013-05-29 08:13:00,68.9,63.8,28.37,South,180,5.0,7.0,84,0.00,,,0.00,Weather View 32 v70,2013-05-29 12:13:00,
2013-05-29 08:18:00,69.4,64.0,28.37,SW,225,4.0,7.0,83,0.00,,,0.00,Weather View 32 v70,2013-05-29 12:18:00,
2013-05-29 08:23:00,69.9,64.1,28.38,SSW,202,7.0,7.0,82,0.00,,,0.00,Weather View 32 v70,2013-05-29 12:23:00,
2013-05-29 08:28:00,70.3,63.8,28.38,SSW,202,7.0,9.0,80,0.00,,,0.00,Weather View 32 v70,2013-05-29 12:28:00,
2013-05-29 08:33:00,70.8,63.9,28.38,South,180,4.0,9.0,79,0.00,,,0.00,Weather View 32 v70,2013-05-29 12:33:00,
2013-05-29 08:38:00,71.3,64.4,28.39,South,180,3.0,9.0,79,0.00,,,0.00,Weather View 32 v70,2013-05-29 12:38:00,
2013-05-29 08:43:00,71.5,63.9,28.39,SSE,157,4.0,9.0,77,0.00,,,0.00,Weather View 32 v70,2013-05-29 12:43:00,
2013-05-29 08:48:00,71.9,64.3,28.39,South,180,6.0,9.0,77,0.00,,,0.00,Weather View 32 v70,2013-05-29 12:48:00,
2013-05-29 08:53:00,71.9,64.3,28.39,South,180,6.0,10.0,77,0.00,,,0.00,Weather View 32 v70,2013-05-29 12:53:00,
2013-05-29 08:58:00,72.3,64.7,28.39,SSW,202,6.0,10.0,77,0.00,,,0.00,Weather View 32 v70,2013-05-29 12:58:00,
2013-05-29 09:03:00,72.7,64.3,28.39,South,180,5.0,11.0,75,0.00,,,0.00,Weather View 32 v70,2013-05-29 13:03:00,
2013-05-29 09:08:00,73.2,64.0,28.39,South,180,6.0,11.0,73,0.00,,,0.00,Weather View 32 v70,2013-05-29 13:08:00,
2013-05-29 09:13:00,73.5,63.9,28.39,South,180,9.0,11.0,72,0.00,,,0.00,Weather View 32 v70,2013-05-29 13:13:00,
2013-05-29 09:18:00,73.6,64.0,28.39,South,180,6.0,12.0,72,0.00,,,0.00,Weather View 32 v70,2013-05-29 13:18:00,
2013-05-29 09:23:00,73.9,63.9,28.39,South,180,9.0,14.0,71,0.00,,,0.00,Weather View 32 v70,2013-05-29 13:23:00,
2013-05-29 09:28:00,74.2,62.9,28.39,South,180,7.0,14.0,68,0.00,,,0.00,Weather View 32 v70,2013-05-29 13:28:00,
2013-05-29 09:33:00,74.8,63.1,28.39,SW,225,4.0,14.0,67,0.00,,,0.00,Weather View 32 v70,2013-05-29 13:33:00,
2013-05-29 09:38:00,75.2,63.4,28.39,SSW,202,12.0,14.0,67,0.00,,,0.00,Weather View 32 v70,2013-05-29 13:38:00,
2013-05-29 09:43:00,75.3,63.1,28.40,South,180,6.0,14.0,66,0.00,,,0.00,Weather View 32 v70,2013-05-29 13:43:00,
2013-05-29 09:48:00,75.6,63.4,28.39,South,180,5.0,14.0,66,0.00,,,0.00,Weather View 32 v70,2013-05-29 13:48:00,
2013-05-29 09:53:00,76.4,63.3,28.40,South,180,6.0,14.0,64,0.00,,,0.00,Weather View 32 v70,2013-05-29 13:53:00,
2013-05-29 09:58:00,76.7,63.1,28.40,South,180,9.0,14.0,63,0.00,,,0.00,Weather View 32 v70,2013-05-29 13:58:00,
2013-05-29 10:03:00,76.9,63.3,28.40,South,180,7.0,14.0,63,0.00,,,0.00,Weather View 32 v70,2013-05-29 14:03:00,
2013-05-29 10:08:00,77.4,62.8,28.40,SW,225,4.0,14.0,61,0.00,,,0.00,Weather View 32 v70,2013-05-29 14:08:00,
2013-05-29 10:13:00,77.9,63.3,28.41,South,180,7.0,14.0,61,0.00,,,0.00,Weather View 32 v70,2013-05-29 14:13:00,
2013-05-29 10:18:00,78.4,63.3,28.40,South,180,9.0,14.0,60,0.00,,,0.00,Weather View 32 v70,2013-05-29 14:18:00,
2013-05-29 10:23:00,78.9,62.3,28.40,West,270,4.0,12.0,57,0.00,,,0.00,Weather View 32 v70,2013-05-29 14:23:00,
2013-05-29 10:28:00,79.8,61.1,28.40,West,270,10.0,13.0,53,0.00,,,0.00,Weather View 32 v70,2013-05-29 14:28:00,
2013-05-29 10:33:00,80.0,60.2,28.40,WNW,292,6.0,13.0,51,0.00,,,0.00,Weather View 32 v70,2013-05-29 14:33:00,
2013-05-29 10:38:00,80.3,60.5,28.40,West,270,10.0,14.0,51,0.00,,,0.00,Weather View 32 v70,2013-05-29 14:38:00,
2013-05-29 10:43:00,80.5,59.5,28.40,West,270,7.0,14.0,49,0.00,,,0.00,Weather View 32 v70,2013-05-29 14:43:00,
2013-05-29 10:48:00,80.7,60.3,28.40,West,270,6.0,14.0,50,0.00,,,0.00,Weather View 32 v70,2013-05-29 14:48:00,
2013-05-29 10:53:00,80.8,59.8,28.40,NW,315,6.0,14.0,49,0.00,,,0.00,Weather View 32 v70,2013-05-29 14:53:00,
2013-05-29 10:58:00,81.2,58.4,28.40,NW,315,9.0,14.0,46,0.00,,,0.00,Weather View 32 v70,2013-05-29 14:58:00,
2013-05-29 11:04:00,81.7,58.8,28.40,North,360,4.0,14.0,46,0.00,,,0.00,Weather View 32 v70,2013-05-29 15:04:00,
2013-05-29 11:09:00,82.6,60.3,28.40,WSW,247,9.0,14.0,47,0.00,,,0.00,Weather View 32 v70,2013-05-29 15:09:00,
2013-05-29 11:14:00,82.4,60.1,28.40,West,270,11.0,14.0,47,0.00,,,0.00,Weather View 32 v70,2013-05-29 15:14:00,
2013-05-29 11:19:00,82.7,57.8,28.40,NW,315,8.0,15.0,43,0.00,,,0.00,Weather View 32 v70,2013-05-29 15:19:00,
2013-05-29 11:24:00,82.7,58.5,28.40,WNW,292,9.0,15.0,44,0.00,,,0.00,Weather View 32 v70,2013-05-29 15:24:00,
2013-05-29 11:29:00,82.8,58.6,28.40,West,270,3.0,15.0,44,0.00,,,0.00,Weather View 32 v70,2013-05-29 15:29:00,
2013-05-29 11:34:00,82.6,57.8,28.41,WNW,292,7.0,15.0,43,0.00,,,0.00,Weather View 32 v70,2013-05-29 15:34:00,
2013-05-29 11:39:00,82.4,58.2,28.41,NW,315,10.0,15.0,44,0.00,,,0.00,Weather View 32 v70,2013-05-29 15:39:00,
2013-05-29 11:44:00,82.4,58.2,28.40,West,270,8.0,15.0,44,0.00,,,0.00,Weather View 32 v70,2013-05-29 15:44:00,
2013-05-29 11:49:00,81.9,58.4,28.41,West,270,4.0,15.0,45,0.00,,,0.00,Weather View 32 v70,2013-05-29 15:49:00,
2013-05-29 11:54:00,82.6,55.7,28.41,NW,315,7.0,15.0,40,0.00,,,0.00,Weather View 32 v70,2013-05-29 15:54:00,
2013-05-29 11:59:00,83.3,57.7,28.40,NW,315,4.0,15.0,42,0.00,,,0.00,Weather View 32 v70,2013-05-29 15:59:00,
2013-05-29 12:04:00,83.3,57.1,28.41,West,270,6.0,15.0,41,0.00,,,0.00,Weather View 32 v70,2013-05-29 16:04:00,
2013-05-29 12:09:00,82.4,58.2,28.41,NW,315,7.0,15.0,44,0.00,,,0.00,Weather View 32 v70,2013-05-29 16:09:00,
2013-05-29 12:14:00,83.0,56.8,28.40,NW,315,6.0,15.0,41,0.00,,,0.00,Weather View 32 v70,2013-05-29 16:14:00,
2013-05-29 12:19:00,83.2,56.3,28.40,NW,315,5.0,15.0,40,0.00,,,0.00,Weather View 32 v70,2013-05-29 16:19:00,
2013-05-29 12:24:00,82.6,57.8,28.40,West,270,7.0,14.0,43,0.00,,,0.00,Weather View 32 v70,2013-05-29 16:24:00,
2013-05-29 12:29:00,81.9,57.1,28.40,West,270,3.0,14.0,43,0.00,,,0.00,Weather View 32 v70,2013-05-29 16:29:00,
2013-05-29 12:34:00,82.7,58.5,28.40,NNW,337,2.0,14.0,44,0.00,,,0.00,Weather View 32 v70,2013-05-29 16:34:00,
2013-05-29 12:39:00,83.8,56.8,28.40,WNW,292,7.0,14.0,40,0.00,,,0.00,Weather View 32 v70,2013-05-29 16:39:00,
2013-05-29 12:44:00,83.9,55.5,28.40,WNW,292,7.0,14.0,38,0.00,,,0.00,Weather View 32 v70,2013-05-29 16:44:00,
2013-05-29 12:49:00,84.3,55.8,28.40,NW,315,6.0,14.0,38,0.00,,,0.00,Weather View 32 v70,2013-05-29 16:49:00,
2013-05-29 12:54:00,84.1,54.9,28.40,SW,225,2.0,12.0,37,0.00,,,0.00,Weather View 32 v70,2013-05-29 16:54:00,
2013-05-29 12:59:00,83.5,55.1,28.40,SSW,202,7.0,12.0,38,0.00,,,0.00,Weather View 32 v70,2013-05-29 16:59:00,
2013-05-29 13:04:00,83.1,56.2,28.40,SW,225,3.0,12.0,40,0.00,,,0.00,Weather View 32 v70,2013-05-29 17:04:00,
2013-05-29 13:09:00,83.1,56.2,28.39,West,270,2.0,11.0,40,0.00,,,0.00,Weather View 32 v70,2013-05-29 17:09:00,
2013-05-29 13:14:00,83.3,57.1,28.39,SW,225,2.0,11.0,41,0.00,,,0.00,Weather View 32 v70,2013-05-29 17:14:00,
2013-05-29 13:19:00,83.4,57.1,28.39,West,270,2.0,11.0,41,0.00,,,0.00,Weather View 32 v70,2013-05-29 17:19:00,
2013-05-29 13:24:00,84.1,57.8,28.39,SW,225,2.0,11.0,41,0.00,,,0.00,Weather View 32 v70,2013-05-29 17:24:00,
2013-05-29 13:29:00,85.0,57.2,28.39,SW,225,9.0,11.0,39,0.00,,,0.00,Weather View 32 v70,2013-05-29 17:29:00,
2013-05-29 13:34:00,84.9,56.4,28.39,SW,225,6.0,11.0,38,0.00,,,0.00,Weather View 32 v70,2013-05-29 17:34:00,
2013-05-29 13:39:00,85.5,56.9,28.39,SW,225,2.0,11.0,38,0.00,,,0.00,Weather View 32 v70,2013-05-29 17:39:00,
2013-05-29 13:44:00,85.9,57.3,28.39,SW,225,6.0,11.0,38,0.00,,,0.00,Weather View 32 v70,2013-05-29 17:44:00,
2013-05-29 13:49:00,85.7,59.9,28.39,West,270,1.0,11.0,42,0.00,,,0.00,Weather View 32 v70,2013-05-29 17:49:00,
2013-05-29 13:54:00,85.5,56.9,28.39,South,180,6.0,11.0,38,0.00,,,0.00,Weather View 32 v70,2013-05-29 17:54:00,
2013-05-29 13:59:00,85.6,57.0,28.39,South,180,7.0,11.0,38,0.00,,,0.00,Weather View 32 v70,2013-05-29 17:59:00,
2013-05-29 14:04:00,84.4,58.7,28.39,SE,135,4.0,11.0,42,0.00,,,0.00,Weather View 32 v70,2013-05-29 18:04:00,
2013-05-29 14:09:00,85.2,58.1,28.39,South,180,10.0,11.0,40,0.00,,,0.00,Weather View 32 v70,2013-05-29 18:09:00,
2013-05-29 14:14:00,84.6,56.1,28.39,South,180,7.0,11.0,38,0.00,,,0.00,Weather View 32 v70,2013-05-29 18:14:00,
2013-05-29 14:19:00,85.1,56.5,28.38,SE,135,9.0,14.0,38,0.00,,,0.00,Weather View 32 v70,2013-05-29 18:19:00,
2013-05-29 14:24:00,85.8,56.4,28.38,South,180,6.0,14.0,37,0.00,,,0.00,Weather View 32 v70,2013-05-29 18:24:00,
2013-05-29 14:29:00,85.4,57.5,28.39,South,180,2.0,14.0,39,0.00,,,0.00,Weather View 32 v70,2013-05-29 18:29:00,
2013-05-29 14:34:00,85.3,58.8,28.38,SE,135,1.0,14.0,41,0.00,,,0.00,Weather View 32 v70,2013-05-29 18:34:00,
2013-05-29 14:39:00,85.4,58.2,28.38,NW,315,4.0,14.0,40,0.00,,,0.00,Weather View 32 v70,2013-05-29 18:39:00,
2013-05-29 14:44:00,85.4,56.8,28.38,WNW,292,2.0,14.0,38,0.00,,,0.00,Weather View 32 v70,2013-05-29 18:44:00,
2013-05-29 14:49:00,84.9,56.4,28.38,West,270,6.0,14.0,38,0.00,,,0.00,Weather View 32 v70,2013-05-29 18:49:00,
2013-05-29 14:54:00,85.3,57.4,28.38,West,270,4.0,14.0,39,0.00,,,0.00,Weather View 32 v70,2013-05-29 18:54:00,
2013-05-29 14:59:00,85.4,53.7,28.38,SW,225,3.0,14.0,34,0.00,,,0.00,Weather View 32 v70,2013-05-29 18:59:00,
2013-05-29 15:04:00,85.1,56.5,28.38,SW,225,4.0,14.0,38,0.00,,,0.00,Weather View 32 v70,2013-05-29 19:04:00,
2013-05-29 15:09:00,84.8,55.5,28.38,South,180,6.0,14.0,37,0.00,,,0.00,Weather View 32 v70,2013-05-29 19:09:00,
2013-05-29 15:14:00,84.8,56.3,28.38,South,180,9.0,14.0,38,0.00,,,0.00,Weather View 32 v70,2013-05-29 19:14:00,
2013-05-29 15:19:00,84.9,57.8,28.38,SW,225,3.0,11.0,40,0.00,,,0.00,Weather View 32 v70,2013-05-29 19:19:00,
2013-05-29 15:24:00,84.3,55.8,28.37,South,180,6.0,12.0,38,0.00,,,0.00,Weather View 32 v70,2013-05-29 19:24:00,
2013-05-29 15:29:00,84.8,57.0,28.37,South,180,6.0,12.0,39,0.00,,,0.00,Weather View 32 v70,2013-05-29 19:29:00,
2013-05-29 15:34:00,85.4,56.1,28.37,SSW,202,11.0,12.0,37,0.00,,,0.00,Weather View 32 v70,2013-05-29 19:34:00,
2013-05-29 15:39:00,85.1,55.8,28.37,South,180,4.0,14.0,37,0.00,,,0.00,Weather View 32 v70,2013-05-29 19:39:00,
2013-05-29 15:44:00,85.9,56.5,28.37,SSW,202,9.0,15.0,37,0.00,,,0.00,Weather View 32 v70,2013-05-29 19:44:00,
2013-05-29 15:49:00,85.8,56.4,28.37,South,180,8.0,16.0,37,0.00,,,0.00,Weather View 32 v70,2013-05-29 19:49:00,
2013-05-29 15:54:00,86.3,58.3,28.37,South,180,10.0,16.0,39,0.00,,,0.00,Weather View 32 v70,2013-05-29 19:54:00,
2013-05-29 15:59:00,85.8,58.6,28.37,South,180,5.0,16.0,40,0.00,,,0.00,Weather View 32 v70,2013-05-29 19:59:00,
2013-05-29 16:04:00,85.9,59.4,28.37,SW,225,6.0,16.0,41,0.00,,,0.00,Weather View 32 v70,2013-05-29 20:04:00,
2013-05-29 16:09:00,85.9,58.0,28.36,SSW,202,7.0,16.0,39,0.00,,,0.00,Weather View 32 v70,2013-05-29 20:09:00,
2013-05-29 16:14:00,85.6,57.7,28.36,SW,225,10.0,16.0,39,0.00,,,0.00,Weather View 32 v70,2013-05-29 20:14:00,
2013-05-29 16:19:00,85.5,58.3,28.36,South,180,10.0,16.0,40,0.00,,,0.00,Weather View 32 v70,2013-05-29 20:19:00,
2013-05-29 16:24:00,85.1,58.7,28.36,South,180,7.0,17.0,41,0.00,,,0.00,Weather View 32 v70,2013-05-29 20:24:00,
2013-05-29 16:29:00,85.0,58.6,28.36,South,180,10.0,17.0,41,0.00,,,0.00,Weather View 32 v70,2013-05-29 20:29:00,
2013-05-29 16:34:00,85.4,58.2,28.35,South,180,7.0,17.0,40,0.00,,,0.00,Weather View 32 v70,2013-05-29 20:34:00,
2013-05-29 16:39:00,85.2,58.1,28.35,South,180,8.0,17.0,40,0.00,,,0.00,Weather View 32 v70,2013-05-29 20:39:00,
2013-05-29 16:44:00,85.1,58.7,28.35,South,180,7.0,17.0,41,0.00,,,0.00,Weather View 32 v70,2013-05-29 20:44:00,
2013-05-29 16:49:00,85.6,57.7,28.35,South,180,9.0,17.0,39,0.00,,,0.00,Weather View 32 v70,2013-05-29 20:49:00,
2013-05-29 16:54:00,85.6,58.4,28.35,South,180,4.0,17.0,40,0.00,,,0.00,Weather View 32 v70,2013-05-29 20:54:00,
2013-05-29 16:59:00,85.5,59.0,28.35,South,180,8.0,17.0,41,0.00,,,0.00,Weather View 32 v70,2013-05-29 20:59:00,
2013-05-29 17:04:00,85.6,58.4,28.35,South,180,8.0,17.0,40,0.00,,,0.00,Weather View 32 v70,2013-05-29 21:04:00,
2013-05-29 17:09:00,85.6,59.1,28.35,South,180,9.0,17.0,41,0.00,,,0.00,Weather View 32 v70,2013-05-29 21:09:00,
2013-05-29 17:14:00,84.9,57.8,28.35,South,180,11.0,17.0,40,0.00,,,0.00,Weather View 32 v70,2013-05-29 21:14:00,
2013-05-29 17:19:00,84.2,57.9,28.35,South,180,6.0,17.0,41,0.00,,,0.00,Weather View 32 v70,2013-05-29 21:19:00,
2013-05-29 17:24:00,84.4,57.4,28.36,SW,225,7.0,17.0,40,0.00,,,0.00,Weather View 32 v70,2013-05-29 21:24:00,
2013-05-29 17:29:00,84.6,58.2,28.36,South,180,7.0,17.0,41,0.00,,,0.00,Weather View 32 v70,2013-05-29 21:29:00,
2013-05-29 17:34:00,84.9,58.5,28.35,South,180,6.0,17.0,41,0.00,,,0.00,Weather View 32 v70,2013-05-29 21:34:00,
2013-05-29 17:39:00,84.9,57.8,28.35,SSE,157,3.0,17.0,40,0.00,,,0.00,Weather View 32 v70,2013-05-29 21:39:00,
2013-05-29 17:44:00,84.7,57.6,28.35,South,180,9.0,17.0,40,0.00,,,0.00,Weather View 32 v70,2013-05-29 21:44:00,
2013-05-29 17:49:00,85.2,58.1,28.35,South,180,8.0,17.0,40,0.00,,,0.00,Weather View 32 v70,2013-05-29 21:49:00,
2013-05-29 17:54:00,84.9,57.8,28.35,SSW,202,5.0,17.0,40,0.00,,,0.00,Weather View 32 v70,2013-05-29 21:54:00,
2013-05-29 17:59:00,84.9,57.1,28.35,SW,225,7.0,17.0,39,0.00,,,0.00,Weather View 32 v70,2013-05-29 21:59:00,
2013-05-29 18:04:00,84.8,57.7,28.35,South,180,11.0,17.0,40,0.00,,,0.00,Weather View 32 v70,2013-05-29 22:04:00,
2013-05-29 18:09:00,84.1,57.8,28.35,South,180,9.0,17.0,41,0.00,,,0.00,Weather View 32 v70,2013-05-29 22:09:00,
2013-05-29 18:14:00,84.1,59.1,28.35,SW,225,6.0,17.0,43,0.00,,,0.00,Weather View 32 v70,2013-05-29 22:14:00,
2013-05-29 18:19:00,84.2,59.2,28.35,SW,225,11.0,14.0,43,0.00,,,0.00,Weather View 32 v70,2013-05-29 22:19:00,
2013-05-29 18:24:00,83.8,58.2,28.35,South,180,9.0,14.0,42,0.00,,,0.00,Weather View 32 v70,2013-05-29 22:24:00,
2013-05-29 18:29:00,83.5,57.9,28.36,SSW,202,10.0,14.0,42,0.00,,,0.00,Weather View 32 v70,2013-05-29 22:29:00,
2013-05-29 18:34:00,83.3,58.4,28.36,SSW,202,8.0,14.0,43,0.00,,,0.00,Weather View 32 v70,2013-05-29 22:34:00,
2013-05-29 18:39:00,83.2,58.9,28.36,SSW,202,4.0,14.0,44,0.00,,,0.00,Weather View 32 v70,2013-05-29 22:39:00,
2013-05-29 18:44:00,82.9,58.7,28.35,South,180,4.0,14.0,44,0.00,,,0.00,Weather View 32 v70,2013-05-29 22:44:00,
2013-05-29 18:49:00,83.2,58.3,28.35,South,180,9.0,14.0,43,0.00,,,0.00,Weather View 32 v70,2013-05-29 22:49:00,
2013-05-29 18:54:00,83.2,58.3,28.35,South,180,7.0,15.0,43,0.00,,,0.00,Weather View 32 v70,2013-05-29 22:54:00,
2013-05-29 18:59:00,83.1,58.9,28.36,South,180,9.0,15.0,44,0.00,,,0.00,Weather View 32 v70,2013-05-29 22:59:00,
2013-05-29 19:04:00,82.9,59.3,28.35,SW,225,8.0,15.0,45,0.00,,,0.00,Weather View 32 v70,2013-05-29 23:04:00,
2013-05-29 19:09:00,82.9,59.9,28.35,SSW,202,4.0,15.0,46,0.00,,,0.00,Weather View 32 v70,2013-05-29 23:09:00,
2013-05-29 19:14:00,82.7,59.1,28.35,South,180,6.0,15.0,45,0.00,,,0.00,Weather View 32 v70,2013-05-29 23:14:00,
2013-05-29 19:19:00,82.4,59.5,28.35,SW,225,5.0,15.0,46,0.00,,,0.00,Weather View 32 v70,2013-05-29 23:19:00,
2013-05-29 19:24:00,82.0,59.7,28.35,SSW,202,6.0,15.0,47,0.00,,,0.00,Weather View 32 v70,2013-05-29 23:24:00,
2013-05-29 19:29:00,81.7,59.4,28.35,SSW,202,7.0,15.0,47,0.00,,,0.00,Weather View 32 v70,2013-05-29 23:29:00,
2013-05-29 19:34:00,81.6,59.9,28.35,South,180,6.0,15.0,48,0.00,,,0.00,Weather View 32 v70,2013-05-29 23:34:00,
2013-05-29 19:39:00,81.4,59.8,28.35,SSW,202,10.0,15.0,48,0.00,,,0.00,Weather View 32 v70,2013-05-29 23:39:00,
2013-05-29 19:44:00,80.8,59.8,28.35,SSW,202,6.0,15.0,49,0.00,,,0.00,Weather View 32 v70,2013-05-29 23:44:00,
2013-05-29 19:49:00,80.4,60.0,28.35,SW,225,9.0,15.0,50,0.00,,,0.00,Weather View 32 v70,2013-05-29 23:49:00,
2013-05-29 19:54:00,79.9,59.5,28.35,SW,225,4.0,14.0,50,0.00,,,0.00,Weather View 32 v70,2013-05-29 23:54:00,
2013-05-29 19:59:00,79.4,60.2,28.36,SSW,202,7.0,14.0,52,0.00,,,0.00,Weather View 32 v70,2013-05-29 23:59:00,
2013-05-29 20:04:00,79.2,60.0,28.36,SW,225,2.0,14.0,52,0.00,,,0.00,Weather View 32 v70,2013-05-30 00:04:00,
2013-05-29 20:09:00,78.8,60.2,28.36,SW,225,3.0,14.0,53,0.00,,,0.00,Weather View 32 v70,2013-05-30 00:09:00,
2013-05-29 20:14:00,78.5,60.4,28.36,SSW,202,5.0,14.0,54,0.00,,,0.00,Weather View 32 v70,2013-05-30 00:14:00,
2013-05-29 20:20:00,77.9,60.4,28.36,SW,225,4.0,12.0,55,0.00,,,0.00,Weather View 32 v70,2013-05-30 00:20:00,
2013-05-29 20:25:00,77.7,60.7,28.36,SW,225,3.0,12.0,56,0.00,,,0.00,Weather View 32 v70,2013-05-30 00:25:00,
2013-05-29 20:30:00,77.3,60.8,28.35,SW,225,3.0,11.0,57,0.00,,,0.00,Weather View 32 v70,2013-05-30 00:30:00,
2013-05-29 20:35:00,77.1,60.6,28.35,SW,225,2.0,11.0,57,0.00,,,0.00,Weather View 32 v70,2013-05-30 00:35:00,
2013-05-29 20:40:00,76.8,60.4,28.35,SW,225,2.0,11.0,57,0.00,,,0.00,Weather View 32 v70,2013-05-30 00:40:00,
2013-05-29 20:45:00,76.7,60.3,28.35,SW,225,4.0,11.0,57,0.00,,,0.00,Weather View 32 v70,2013-05-30 00:45:00,
2013-05-29 20:50:00,76.5,60.6,28.35,SW,225,2.0,11.0,58,0.00,,,0.00,Weather View 32 v70,2013-05-30 00:50:00,
2013-05-29 20:55:00,76.3,60.4,28.36,SW,225,2.0,11.0,58,0.00,,,0.00,Weather View 32 v70,2013-05-30 00:55:00,
2013-05-29 21:00:00,76.0,60.1,28.36,WSW,247,2.0,11.0,58,0.00,,,0.00,Weather View 32 v70,2013-05-30 01:00:00,
2013-05-29 21:05:00,75.8,60.4,28.36,SW,225,2.0,8.0,59,0.00,,,0.00,Weather View 32 v70,2013-05-30 01:05:00,
2013-05-29 21:10:00,75.4,60.5,28.36,SW,225,1.0,7.0,60,0.00,,,0.00,Weather View 32 v70,2013-05-30 01:10:00,
2013-05-29 21:15:00,75.0,60.6,28.36,SW,225,3.0,7.0,61,0.00,,,0.00,Weather View 32 v70,2013-05-30 01:15:00,
2013-05-29 21:20:00,74.8,60.9,28.36,SW,225,2.0,7.0,62,0.00,,,0.00,Weather View 32 v70,2013-05-30 01:20:00,
2013-05-29 21:25:00,74.7,60.8,28.36,SW,225,3.0,7.0,62,0.00,,,0.00,Weather View 32 v70,2013-05-30 01:25:00,
2013-05-29 21:30:00,74.7,60.8,28.37,WSW,247,1.0,7.0,62,0.00,,,0.00,Weather View 32 v70,2013-05-30 01:30:00,
2013-05-29 21:35:00,74.5,61.0,28.37,SW,225,1.0,6.0,63,0.00,,,0.00,Weather View 32 v70,2013-05-30 01:35:00,
2013-05-29 21:40:00,73.5,61.0,28.37,WSW,247,1.0,6.0,65,0.00,,,0.00,Weather View 32 v70,2013-05-30 01:40:00,
2013-05-29 21:45:00,72.7,61.1,28.37,SW,225,1.0,6.0,67,0.00,,,0.00,Weather View 32 v70,2013-05-30 01:45:00,
2013-05-29 21:50:00,72.5,60.9,28.37,SW,225,0.0,6.0,67,0.00,,,0.00,Weather View 32 v70,2013-05-30 01:50:00,
2013-05-29 21:55:00,71.9,61.1,28.37,SW,225,1.0,6.0,69,0.00,,,0.00,Weather View 32 v70,2013-05-30 01:55:00,
2013-05-29 22:00:00,71.4,61.1,28.37,SW,225,1.0,6.0,70,0.00,,,0.00,Weather View 32 v70,2013-05-30 02:00:00,
2013-05-29 22:05:00,70.9,61.0,28.37,SW,225,1.0,6.0,71,0.00,,,0.00,Weather View 32 v70,2013-05-30 02:05:00,
2013-05-29 22:10:00,70.9,61.0,28.37,SW,225,2.0,6.0,71,0.00,,,0.00,Weather View 32 v70,2013-05-30 02:10:00,
2013-05-29 22:15:00,70.6,61.1,28.37,SW,225,0.0,5.0,72,0.00,,,0.00,Weather View 32 v70,2013-05-30 02:15:00,
2013-05-29 22:20:00,69.9,61.2,28.37,SW,225,0.0,5.0,74,0.00,,,0.00,Weather View 32 v70,2013-05-30 02:20:00,
2013-05-29 22:25:00,69.9,61.2,28.38,South,180,3.0,5.0,74,0.00,,,0.00,Weather View 32 v70,2013-05-30 02:25:00,
2013-05-29 22:30:00,70.4,61.3,28.38,South,180,2.0,5.0,73,0.00,,,0.00,Weather View 32 v70,2013-05-30 02:30:00,
2013-05-29 22:35:00,71.1,61.2,28.38,SW,225,2.0,3.0,71,0.00,,,0.00,Weather View 32 v70,2013-05-30 02:35:00,
2013-05-29 22:40:00,71.4,61.1,28.38,SW,225,4.0,4.0,70,0.00,,,0.00,Weather View 32 v70,2013-05-30 02:40:00,
2013-05-29 22:45:00,71.9,61.1,28.38,SW,225,2.0,6.0,69,0.00,,,0.00,Weather View 32 v70,2013-05-30 02:45:00,
2013-05-29 22:50:00,72.2,61.4,28.38,SW,225,1.0,6.0,69,0.00,,,0.00,Weather View 32 v70,2013-05-30 02:50:00,
2013-05-29 22:55:00,71.6,61.7,28.38,SW,225,6.0,6.0,71,0.00,,,0.00,Weather View 32 v70,2013-05-30 02:55:00,
2013-05-29 23:00:00,72.3,61.5,28.38,SW,225,2.0,7.0,69,0.00,,,0.00,Weather View 32 v70,2013-05-30 03:00:00,
2013-05-29 23:05:00,72.2,61.8,28.38,SW,225,3.0,7.0,70,0.00,,,0.00,Weather View 32 v70,2013-05-30 03:05:00,
2013-05-29 23:10:00,72.1,61.7,28.38,West,270,2.0,7.0,70,0.00,,,0.00,Weather View 32 v70,2013-05-30 03:10:00,
2013-05-29 23:15:00,71.9,61.5,28.38,WSW,247,1.0,7.0,70,0.00,,,0.00,Weather View 32 v70,2013-05-30 03:15:00,
2013-05-29 23:20:00,71.9,62.0,28.38,SW,225,3.0,7.0,71,0.00,,,0.00,Weather View 32 v70,2013-05-30 03:20:00,
2013-05-29 23:25:00,72.4,61.6,28.38,SW,225,2.0,7.0,69,0.00,,,0.00,Weather View 32 v70,2013-05-30 03:25:00,
2013-05-29 23:30:00,71.8,61.5,28.38,SE,135,3.0,7.0,70,0.00,,,0.00,Weather View 32 v70,2013-05-30 03:30:00,
2013-05-29 23:35:00,70.1,61.8,28.38,SE,135,3.0,7.0,75,0.00,,,0.00,Weather View 32 v70,2013-05-30 03:35:00,
2013-05-29 23:40:00,69.5,61.6,28.38,ESE,112,2.0,7.0,76,0.00,,,0.00,Weather View 32 v70,2013-05-30 03:40:00,
2013-05-29 23:45:00,69.2,61.3,28.38,ESE,112,2.0,7.0,76,0.00,,,0.00,Weather View 32 v70,2013-05-30 03:45:00,
2013-05-29 23:50:00,68.8,60.9,28.38,ESE,112,0.0,7.0,76,0.00,,,0.00,Weather View 32 v70,2013-05-30 03:50:00,
2013-05-29 23:55:00,68.4,60.5,28.38,ESE,112,0.0,7.0,76,0.00,,,0.00,Weather View 32 v70,2013-05-30 03:55:00,